Kosmos-2433

operational
NORAD ID: 32277 Int'l Des: 2007-052 Owner: KVR/IACG Country: RU Constellation: GLONASS
MEOCIRCULAR

About Kosmos-2433

Description loading...

Live Position

Loading 3D Globe...

Upcoming Passes

Altitude History

Altitude vs Time

uPlot chart will show altitude changes over time

Two-Line Element Set

1 32277U 07052C 25305.58980388 -.00000004 00000-0 00000-0 0 9994
2 32277 65.7165 323.5164 0015626 181.7184 356.3771 2.13209016140367
Epoch: Nov 1, 2025 • Age: 18 hours

Current Status

Altitude 19153.8 km
Velocity 3.95 km/s
Sub-Earth Point 42.56°N, 177.06°E
Launch Date Oct 26, 2007
Age 18 years
Type other

Technical Details

Classification Payload
Mass 1450.00 kg
Dry Mass 1200.00 kg
Total Mass 1450.00 kg
Length 4.00 m
Diameter 1.50 m
Span 7.80 m
Shape Cyl + Ant + 2 Pan
Manufacturer RESH
Bus Type Uragan
Phase Status In Orbit
Owner/State KVR/IACG/RU

Large Constellations

Loading constellations...